Location: Freistadt
(48.5112°N, 14.5013°E)
Time: 16:40:04
(UTC+02:00)

EO-79 - Pass Details

Date: 23 April 2024
Orbit: 562 x 575 km, 98.0° (Epoch: 25 May)

Event Time Altitude Azimuth Distance (km) Brightness Sun altitude
Rises 03:07:12 0° 29° (NNE) 2,798 ? -22.7°
Reaches altitude 10° 03:10:01 10° 50° (NE) 1,895 ? -22.4°
Maximum altitude 03:12:44 17° 91° (E) 1,492 ? -22.2°
Drops below altitude 10° 03:15:26 10° 133° (SE) 1,887 ? -21.9°
Enters shadow 03:15:34 10° 134° (SE) 1,925 ? -21.9°
